[[{"header":{"parameterUnit":"m.s-1","parameterCategory":1,"la1":30.2991,"la2":30.254,"lo1":-89.0895,"lo2":-89.0444,"dy":0.0017,"dx":0.0017,"nx":28,"ny":28,"refTime":"2024-10-13T03:00:00:Z","depth":0,"parameterNumber":2,"parameterNumberName":"U-component_of_WINDS"},"data":[0,0,0,0,0,0,0,0,0,0,0,0,0,0,0,0,0,0,0,0,0,0,0,0,0,0,0,0,0,0,0,0,0,0,0,0,0,0,0,0,0,0,0,0,0,0,0,0,0,0,0,0,0,0,0,0,0,0,2.1312,2.1313,0,2.1491,2.1493,2.1495,2.1549,2.1548,2.1547,2.1547,2.173,2.1736,2.1741,0,0,0,0,0,0,0,0,0,0,0,0,0,2.1015,2.102,2.1311,2.1314,2.1316,2.1491,2.1493,2.1496,2.1549,2.1548,2.1547,2.1546,2.1728,2.1735,2.1742,0,0,0,0,0,0,0,0,0,0,0,0,0,2.1164,2.1022,2.1311,2.1364,2.137,2.149,2.1493,2.1496,2.155,2.1548,2.1547,2.1546,2.1726,2.1734,2.1743,2.1823,0,0,2.1769,2.1773,0,0,0,0,0,0,0,0,2.1156,2.1175,2.1354,2.136,2.1368,2.1496,2.1456,2.1606,2.155,2.1482,2.1547,2.1545,2.1653,2.1668,2.1705,2.1832,2.184,2.177,2.1775,2.1779,2.1781,0,0,0,0,0,0,0,2.1145,2.1168,2.1382,2.1356,2.1365,2.1379,2.1398,2.1485,2.1573,2.1487,2.1492,2.1512,2.1657,2.1696,2.1709,2.1842,2.177,2.1777,2.1783,2.1786,2.2045,2.2047,0,0,0,0,0,0,2.1126,2.1159,2.1377,2.1388,2.1256,2.1385,2.1407,2.1456,2.1572,2.1588,2.1513,2.1514,2.1682,2.1699,2.1716,2.1817,2.1779,2.1787,2.1792,2.2043,2.2045,2.2047,0,0,0,0,0,0,2.1119,2.1145,2.137,2.1275,2.1304,2.1392,2.1447,2.1461,2.15,2.1592,2.1608,2.1537,2.1682,2.1704,2.1796,2.1824,2.1791,2.1799,2.2041,2.2044,2.2046,2.202,0,0,0,0,0,0,2.1111,2.1142,2.1173,2.1275,2.1309,2.1446,2.1449,2.1465,2.1515,2.1517,2.1618,2.1634,2.1682,2.1783,2.1805,2.1836,2.1805,2.2039,2.2042,2.2045,2.2019,2.2022,2.2024,0,0,0,0,0,2.11,2.1159,2.1175,2.1201,2.135,2.1448,2.1467,2.1522,2.1517,2.1549,2.1608,2.163,2.1818,2.1792,2.1817,2.1851,2.2037,2.2041,2.2045,2.2018,2.2021,2.2024,0,0,0,0,0,0,2.1058,2.1173,2.1192,2.1285,2.1357,2.1457,2.1499,2.1524,2.1598,2.1598,2.1663,2.1686,2.1773,2.1822,2.179,2.1935,2.1929,2.1938,2.1899,2.1903,2.1906,2.1892,2.1812,0,0,0,0,0,2.106,2.113,2.1227,2.13,2.1335,2.1411,2.1455,2.1492,2.1568,2.1598,2.1664,2.1737,2.1813,2.1861,2.1936,2.2027,2.205,2.2063,2.2065,2.2067,2.2073,2.2125,2.2132,2.206,2.206,2.206,0,0,2.1064,2.1135,2.1175,2.1293,2.1353,2.1424,2.1435,2.151,2.1563,2.161,2.17,2.1752,2.1838,2.193,2.1974,2.1973,2.2099,2.2072,2.2072,2.2078,2.213,2.2137,2.2143,2.2062,2.2062,2.2062,0,0,2.1107,2.1168,2.1236,2.1296,2.1386,2.1436,2.1452,2.1549,2.1585,2.1678,2.1714,2.1779,2.1907,2.1967,2.2014,2.2082,2.2105,2.2105,2.2117,2.2167,2.2172,2.2178,2.2201,2.2208,2.2111,2.2111,2.2111,0,2.11,2.1209,2.1268,2.1341,2.1391,2.1437,2.1506,2.1561,2.1671,2.1705,2.1703,2.1866,2.1927,2.2033,2.205,2.2087,2.2107,2.2092,2.2167,2.2173,2.2179,2.2201,2.221,2.211,2.211,2.211,2.2111,0,2.1196,2.1271,2.1315,2.1419,2.1475,2.1546,2.1615,2.1665,2.1697,2.1748,2.1842,2.1917,2.2008,2.2036,2.2068,2.2148,2.2144,2.2154,2.2149,2.2184,2.2206,2.2216,2.2109,2.2109,2.211,2.211,0,0,2.1216,2.1353,2.1368,2.1416,2.152,2.1579,2.1652,2.1741,2.1782,2.1857,2.1919,2.2028,2.2037,2.2091,2.213,2.2174,2.2222,2.2179,2.2182,2.2183,2.2314,2.2305,2.2314,2.2239,2.2241,2.2243,2.2306,0,2.1271,2.1403,2.1459,2.1565,2.1635,2.168,2.1744,2.1814,2.1864,2.1931,2.1986,2.2061,2.2069,2.2101,2.2147,2.2206,2.2249,2.2203,2.2297,2.23,2.2272,2.2326,2.2317,2.2373,2.2315,2.2317,2.2318,0,2.1353,2.1428,2.1541,2.1637,2.1668,2.1724,2.181,2.1874,2.1955,2.1988,2.2048,2.2086,2.2164,2.2155,2.2264,2.2231,2.2274,2.2309,2.2313,2.2322,2.231,2.2336,2.2393,2.24,2.2333,2.2332,2.2331,0,2.1354,2.1484,2.1569,2.1609,2.1723,2.1761,2.181,2.189,2.194,2.2016,2.2049,2.2133,2.2178,2.2243,2.2302,2.229,2.2405,2.2401,2.2434,2.2433,2.2455,2.2452,2.2518,2.2485,2.2484,2.2484,2.2484,0,2.141,2.1477,2.1571,2.1623,2.17,2.1764,2.1838,2.189,2.1961,2.2024,2.2069,2.2127,2.2203,2.2271,2.2318,2.24,2.2421,2.245,2.2461,2.2445,2.2441,2.2472,2.2469,2.2487,2.2486,2.2486,2.2485,0,2.1424,2.149,2.1585,2.1685,2.1712,2.1764,2.185,2.1902,2.1955,2.2033,2.2056,2.2138,2.222,2.2286,2.2394,2.2425,2.2512,2.2525,2.2484,2.249,2.2519,2.2515,2.2605,2.262,2.2578,2.2578,2.2578,0,2.1453,2.1506,2.1613,2.1658,2.1707,2.1779,2.1831,2.1897,2.1948,2.2045,2.2086,2.2171,2.2243,2.2372,2.2441,2.2524,2.2539,2.2565,2.2552,2.2534,2.2538,2.2534,2.2539,2.2566,2.2566,2.2566,2.2566,0,2.1499,2.153,2.1602,2.1687,2.1747,2.1817,2.1887,2.1922,2.2001,2.2057,2.2141,2.2197,2.2307,2.2391,2.2481,2.2532,2.2562,2.2571,2.2582,2.2565,2.2539,2.2553,2.2487,2.2568,2.2568,2.2567,2.2567,2.2567,2.1522,2.1571,2.1653,2.1733,2.1793,2.1858,2.1912,2.1972,2.2044,2.2138,2.2173,2.226,2.234,2.2464,2.2516,2.2585,2.2588,2.2605,2.2609,2.2612,2.2609,2.2529,2.2602,2.2602,2.2602,2.2602,2.2602,0,2.1569,2.1625,2.1697,2.1795,2.1858,2.1882,2.1961,2.2012,2.2088,2.2161,2.2231,2.2328,2.241,2.2487,2.2573,2.2613,2.2629,2.2633,2.263,2.2641,2.2603,2.2583,2.2619,2.2619,2.2619,2.2619,2.2619,2.2619,2.1601,2.1685,2.1725,2.184,2.1895,2.1981,2.2024,2.2085,2.2143,2.225,2.2318,2.2368,2.2443,2.2534,2.2611,2.2631,2.266,2.2661,2.2684,2.2647,2.2644,2.2642,2.2624,2.2667,2.2667,2.2717,2.2718,2.2718]},{"header":{"parameterUnit":"m.s-1","parameterCategory":1,"la1":30.2991,"la2":30.254,"lo1":-89.0895,"lo2":-89.0444,"dy":0.0017,"dx":0.0017,"nx":28,"ny":28,"refTime":"2024-10-13T03:00:00:Z","depth":0,"parameterNumber":3,"parameterNumberName":"V-component_of_WINDS"},"data":[0,0,0,0,0,0,0,0,0,0,0,0,0,0,0,0,0,0,0,0,0,0,0,0,0,0,0,0,0,0,0,0,0,0,0,0,0,0,0,0,0,0,0,0,0,0,0,0,0,0,0,0,0,0,0,0,0,0,3.4334,3.4335,0,3.4388,3.4388,3.4389,3.4372,3.4371,3.4369,3.4368,3.4416,3.4419,3.4421,0,0,0,0,0,0,0,0,0,0,0,0,0,3.4211,3.4213,3.4334,3.4335,3.4336,3.4387,3.4388,3.4389,3.4372,3.4371,3.4369,3.4368,3.4416,3.4418,3.4421,0,0,0,0,0,0,0,0,0,0,0,0,0,3.4264,3.4214,3.4334,3.4334,3.4334,3.4387,3.4388,3.4389,3.4372,3.437,3.4369,3.4367,3.4415,3.4418,3.4421,3.4476,0,0,3.4432,3.4434,0,0,0,0,0,0,0,0,3.4261,3.4269,3.4333,3.4334,3.4334,3.4371,3.4362,3.4418,3.4373,3.4357,3.4368,3.4366,3.4402,3.4407,3.442,3.4479,3.4481,3.4432,3.4434,3.4436,3.4437,0,0,0,0,0,0,0,3.4257,3.4266,3.4355,3.4334,3.4335,3.4328,3.4334,3.4373,3.4388,3.4359,3.4358,3.4364,3.4402,3.4417,3.4421,3.4481,3.4432,3.4435,3.4437,3.4439,3.4586,3.4588,0,0,0,0,0,0,3.4254,3.4263,3.4353,3.4357,3.4293,3.4332,3.4338,3.4361,3.4388,3.4391,3.4366,3.4363,3.4412,3.4417,3.4423,3.4488,3.4436,3.4439,3.4441,3.4585,3.4587,3.4589,0,0,0,0,0,0,3.4252,3.4263,3.4351,3.431,3.4321,3.4336,3.4362,3.4363,3.4378,3.4394,3.4396,3.4378,3.4411,3.4418,3.4463,3.449,3.4441,3.4444,3.4582,3.4585,3.4588,3.4621,0,0,0,0,0,0,3.4248,3.4262,3.4285,3.4311,3.4323,3.4393,3.4363,3.4365,3.4385,3.4382,3.4406,3.4408,3.441,3.4458,3.4467,3.4494,3.4447,3.458,3.4584,3.4587,3.4617,3.4624,3.463,0,0,0,0,0,3.4244,3.429,3.4286,3.4297,3.4352,3.4395,3.4402,3.4405,3.4387,3.4409,3.4419,3.4407,3.4486,3.4463,3.4473,3.4501,3.4578,3.4583,3.4587,3.4614,3.4623,3.463,0,0,0,0,0,0,3.4265,3.4294,3.4289,3.4346,3.4368,3.4392,3.442,3.4414,3.444,3.4436,3.4437,3.4442,3.4489,3.4499,3.4474,3.4555,3.4529,3.4535,3.4547,3.4555,3.4561,3.4558,3.4449,0,0,0,0,0,3.4276,3.4311,3.4334,3.4381,3.4393,3.4405,3.4423,3.4424,3.4446,3.4455,3.4468,3.4489,3.4518,3.4537,3.4564,3.4619,3.4623,3.4642,3.4649,3.4654,3.4659,3.4688,3.4696,3.4602,3.4602,3.4602,0,0,3.43,3.432,3.4342,3.4386,3.4404,3.4437,3.4413,3.4449,3.4474,3.446,3.4505,3.4515,3.4537,3.4587,3.461,3.4597,3.4686,3.4659,3.4663,3.4666,3.4693,3.4702,3.471,3.4605,3.4605,3.4604,0,0,3.436,3.438,3.4422,3.444,3.4468,3.4475,3.4485,3.451,3.4517,3.4562,3.4552,3.4579,3.463,3.4646,3.4661,3.4727,3.4717,3.4736,3.4769,3.4797,3.4804,3.4811,3.4834,3.4842,3.4741,3.4741,3.4741,0,3.4386,3.4439,3.4443,3.4481,3.45,3.4491,3.4532,3.4549,3.4583,3.4595,3.4581,3.4644,3.4659,3.4712,3.4728,3.4741,3.4751,3.4733,3.4803,3.481,3.4816,3.4838,3.4846,3.4743,3.4743,3.4743,3.4742,0,3.4468,3.4504,3.4534,3.457,3.4592,3.4631,3.464,3.4661,3.466,3.4668,3.4713,3.473,3.4761,3.4773,3.4771,3.4826,3.4817,3.4803,3.4777,3.4827,3.4847,3.4856,3.4746,3.4745,3.4745,3.4744,0,0,3.4543,3.4581,3.4592,3.4608,3.4637,3.4665,3.4702,3.4734,3.4752,3.4776,3.4806,3.4849,3.4836,3.4853,3.4853,3.4877,3.4927,3.486,3.486,3.4871,3.4988,3.4998,3.5008,3.4921,3.4923,3.4924,3.4986,0,3.4605,3.4675,3.468,3.4741,3.4774,3.4766,3.4798,3.4819,3.4827,3.4854,3.4862,3.4892,3.4874,3.4884,3.4907,3.4916,3.495,3.4912,3.4948,3.4949,3.4942,3.5018,3.503,3.5087,3.4994,3.4995,3.4996,0,3.4688,3.4717,3.4782,3.4807,3.482,3.485,3.488,3.4906,3.4928,3.4932,3.4951,3.4947,3.4984,3.4957,3.5006,3.4979,3.4994,3.5,3.5002,3.5006,3.4975,3.5023,3.5106,3.5114,3.5009,3.5008,3.5007,0,3.4736,3.479,3.4836,3.485,3.488,3.4901,3.4914,3.4934,3.4953,3.4978,3.499,3.5018,3.5033,3.5053,3.5056,3.5036,3.5105,3.5078,3.5108,3.5108,3.5123,3.5122,3.5209,3.5133,3.5133,3.5133,3.5132,0,3.4805,3.4845,3.4858,3.4887,3.4931,3.4935,3.4977,3.4988,3.5007,3.5035,3.5029,3.5055,3.5057,3.5084,3.5086,3.5126,3.5133,3.5136,3.5136,3.5136,3.5136,3.5146,3.5142,3.5135,3.5134,3.5134,3.5134,0,3.4866,3.4877,3.4926,3.4951,3.4958,3.4989,3.5009,3.5035,3.5042,3.5079,3.5087,3.5098,3.5129,3.5134,3.517,3.5171,3.5219,3.5215,3.5212,3.5212,3.5241,3.5238,3.5337,3.5349,3.5266,3.5267,3.5267,0,3.491,3.4941,3.4969,3.4989,3.5004,3.5035,3.5055,3.5059,3.508,3.5107,3.5129,3.516,3.5185,3.5234,3.5244,3.5271,3.5267,3.53,3.5271,3.527,3.5267,3.5265,3.5268,3.5305,3.5306,3.5307,3.5307,0,3.4986,3.4989,3.5019,3.5051,3.5075,3.51,3.5123,3.5138,3.5145,3.5168,3.5201,3.522,3.5257,3.5287,3.5314,3.5325,3.5317,3.5316,3.5325,3.5325,3.5323,3.5324,3.5227,3.5314,3.5313,3.5313,3.5312,3.5312,3.5039,3.5066,3.509,3.5124,3.5142,3.5163,3.5189,3.52,3.5229,3.5261,3.5261,3.5296,3.5316,3.5351,3.5364,3.539,3.5379,3.5391,3.5394,3.5397,3.54,3.5319,3.5395,3.5395,3.5395,3.5395,3.5394,0,3.5114,3.513,3.516,3.5194,3.5219,3.5212,3.5236,3.5258,3.529,3.531,3.5335,3.5372,3.5401,3.5413,3.5441,3.546,3.5457,3.5467,3.5465,3.5468,3.5408,3.5398,3.5469,3.5469,3.5469,3.5469,3.5469,3.5469,3.5156,3.5202,3.5208,3.5262,3.5276,3.5313,3.5327,3.5346,3.5363,3.5405,3.543,3.5438,3.5455,3.5484,3.5509,3.5512,3.5522,3.5534,3.5535,3.5479,3.5472,3.5465,3.5455,3.5536,3.5536,3.5592,3.5592,3.5593]}]]